Location: Guillirin
(45.7167°N, 2.1833°E)
Time: 13:56:54
(UTC+00:00)

Daily predictions for brighter satellites

Satellite Brightness Start Highest point End
(mag) Time Altitude Azimuth Time Altitude Azimuth Time Altitude Azimuth
Cosmos 2082 4.2 19:53:30 10° NNW 19:58:57 47° ENE 20:04:20 10° SE
Meteor 1-11 Rocket 4.0 19:54:28 10° N 20:00:27 68° ENE 20:06:21 10° SSE
Cosmos 2263 Rocket 3.5 19:57:04 10° N 20:01:51 28° NE 20:06:34 10° ESE
Cosmos 1470 Rocket 3.7 19:58:28 10° N 20:02:46 60° E 20:07:02 10° SSE
Cosmos 1656 4.4 19:57:31 10° SW 20:03:01 61° WNW 20:08:29 10° NNE
Cosmos 1743 3.2 20:02:20 10° N 20:05:58 42° ENE 20:09:34 10° SSE
Ariane Rocket 3.3 20:01:13 10° SE 20:06:06 51° ENE 20:11:03 10° N
BREEZE-M DEB (TANK) 2.7 20:07:13 10° W 20:10:29 53° NNW 20:12:37 10° ENE
SPOT 5 4.4 20:07:14 10° ESE 20:11:25 25° ENE 20:15:29 10° N
IRAS Rocket 4.4 20:07:01 10° NNE 20:12:35 56° ESE 20:18:05 10° S
Terra 3.7 20:10:14 10° E 20:13:10 17° ENE 20:16:08 10° NNE
Resurs 01 Rocket 1.6 20:10:24 10° SSE 20:14:47 76° ENE 20:19:13 10° N
Aureole 1 Rocket 2.2 20:12:59 10° S 20:16:09 58° ESE 20:19:06 10° NNE
Cosmos 1515 Rocket 3.6 20:12:44 10° S 20:17:02 63° E 20:21:24 10° NNE
Cosmos 2227 Rocket 2.7 20:14:34 10° NNW 20:20:11 61° WSW 20:25:44 10° S
Landsat 7 4.3 20:15:37 10° S 20:20:17 63° W 20:24:59 10° NNW
Cosmos 921 Rocket 3.5 20:17:04 10° N 20:21:29 49° ENE 20:25:38 11° SE
PSLV R/B 4.0 20:18:56 10° NNE 20:23:00 84° WNW 20:27:02 10° SSW
Cosmos 1980 Rocket 2.3 20:23:24 10° S 20:28:52 56° ESE 20:34:24 10° NNE
CARTOSAT-1 3.9 20:26:14 11° SSE 20:30:16 51° ENE 20:34:28 10° N
Cosmos 1869 Rocket 4.4 20:26:53 10° N 20:31:02 36° ENE 20:34:33 13° SE
Cosmos 2228 Rocket 4.1 20:29:01 11° SSE 20:32:49 31° E 20:36:48 10° NNE
Cosmos 1464 Rocket 4.0 20:27:36 10° S 20:33:47 77° E 20:39:57 10° N
ARGOS Delta rocket 4.2 20:31:19 10° N 20:36:51 86° WNW 20:42:15 10° SSW
Cosmos 2344 3.5 20:29:24 10° SSW 20:36:55 71° ESE 20:44:29 10° NE
Cosmos 2322 Rocket 4.0 20:36:17 11° ESE 20:38:00 12° E 20:40:15 10° ENE
ISS -2.9 20:34:58 10° NW 20:38:14 46° NNE 20:41:26 10° E
Cosmos 2369 3.7 20:32:54 10° SSW 20:38:32 76° ESE 20:44:12 10° NNE
Cosmos 1354 Rocket 4.1 20:34:16 10° S 20:39:26 59° ESE 20:44:39 10° NNE
Spot 2 Rocket 4.1 20:35:42 13° SE 20:39:50 42° ENE 20:44:34 10° N
SPOT 3 Rocket 3.6 20:36:10 12° SSE 20:40:57 67° ENE 20:46:05 10° N
Cosmos 773 Rocket 4.2 20:35:58 10° NNW 20:41:08 57° ENE 20:45:19 15° SE
Cosmos 1536 3.3 20:37:37 10° NNW 20:41:35 61° W 20:45:34 10° S
ATLAS 2AS CENTAUR R/B 3.1 20:34:03 10° SSW 20:41:36 55° ESE 20:48:58 10° NE
Okean 1 3.5 20:40:11 10° S 20:44:03 52° E 20:47:57 10° NNE
Meteor 1-19 Rocket 4.3 20:40:49 10° S 20:46:06 56° E 20:51:24 10° NNE
NOSS 3-4 (A) 4.2 20:40:51 10° WSW 20:46:27 55° NW 20:52:35 10° NNE
NOSS 3-4 (C) 4.2 20:40:52 10° WSW 20:46:31 56° NW 20:52:40 10° NNE
H-2A R/B 3.5 20:42:45 10° N 20:46:33 37° WNW 20:50:20 10° SW
Cosmos 1092 Rocket 4.4 20:41:27 10° N 20:47:23 46° ENE 20:52:05 16° SE
RESURS DK-1 2.7 20:43:49 10° S 20:47:44 44° ESE 20:51:40 10° NE
Cosmos 1697 Rocket 3.4 20:42:12 10° SW 20:47:46 57° WNW 20:53:22 10° NNE
Nadezhda 4 Rocket 4.0 20:42:02 10° N 20:48:18 79° E 20:54:08 12° SSE
USA 245 4.5 20:42:54 12° SSE 20:48:23 76° ENE 20:54:48 10° N
SL-4 R/B 3.1 20:45:00 10° WNW 20:49:11 36° SW 20:52:09 16° SSE
Meteor 2-14 Rocket 4.5 20:45:09 10° N 20:51:15 71° E 20:56:34 14° SSE
ATLAS CENTAUR R/B 4.2 20:53:33 10° N 20:56:07 14° NNE 20:58:40 10° ENE
ARIANE 5 R/B 3.8 20:53:39 16° ESE 20:56:26 30° ENE 21:00:22 10° N
Cosmos 2297 Rocket 4.3 20:52:22 10° NW 20:56:32 21° W 21:00:39 10° SSW
MetOp-B 4.3 20:52:35 11° S 20:57:49 72° WSW 21:03:11 10° NNW
Cosmos 44 Rocket 3.8 20:53:34 10° NNW 20:58:08 47° NE 21:01:28 17° ESE
Cosmos 1184 Rocket 4.1 21:00:37 10° SW 21:03:25 36° WNW 21:06:16 10° N
Cosmos 158 Rocket 4.3 21:00:56 10° NNW 21:05:58 55° ENE 21:09:24 21° SE
ATLAS 3B R/B 3.5 21:00:00 10° NNW 21:07:06 51° NE 21:13:24 15° ESE
Meteor 2-9 Rocket 4.2 21:01:46 10° N 21:07:35 89° W 21:12:06 16° S
NOSS 2-1 (E) 3.9 21:08:10 24° ESE 21:08:10 24° ESE 21:10:37 10° ENE
Cosmos 1975 3.2 21:07:31 10° N 21:11:30 51° ENE 21:13:33 25° SE
Timation 2 Rocket 4.4 21:05:14 10° NNW 21:11:46 67° WSW 21:17:06 17° SSE
Cosmos 2026 Rocket 4.1 21:06:36 10° N 21:12:43 61° E 21:17:00 21° SSE
Cosmos 389 Rocket 4.3 21:09:46 10° NNW 21:12:46 27° W 21:15:48 10° SSW
ERS-1 Rocket 3.0 21:12:32 21° SSE 21:15:55 74° ENE 21:20:58 10° N
SL-16 R/B 2.8 21:13:28 20° SSE 21:16:45 36° ESE 21:21:54 10° NE
CZ-4B R/B 4.2 21:14:52 10° NNW 21:17:07 18° WNW 21:19:21 10° WSW
Meteor 1-4 Rocket 4.4 21:16:16 10° NNE 21:18:39 17° ENE 21:19:36 16° E
Cosmos 1538 Rocket 4.3 21:16:11 10° NNW 21:21:21 54° ENE 21:24:18 24° SE
Helios 1A Rocket 3.1 21:19:01 21° S 21:21:34 67° WSW 21:25:33 10° NNW
GENESIS II 4.4 21:20:46 22° S 21:22:58 47° ESE 21:26:44 10° NE
CZ-2C R/B 3.8 21:19:38 10° NNE 21:24:25 70° ESE 21:27:47 19° S
Cosmos 1733 Rocket 3.6 21:21:29 10° N 21:25:47 45° ENE 21:27:44 28° SE
Meteor 2-8 Rocket 4.5 21:25:01 20° S 21:29:16 63° E 21:35:16 10° NNE
OE (NEXTSAT) 4.1 21:26:38 10° W 21:29:57 90° NNW 21:32:07 20° E
SJ 16-02 2.1 21:27:16 10° SW 21:31:32 53° WNW 21:35:51 10° N
Meteor 1-18 Rocket 4.2 21:26:49 13° S 21:31:55 90° W 21:37:34 10° N
SAR-Lupe-4 4.3 21:29:37 10° NNE 21:32:55 33° E 21:33:21 32° ESE
Cosmos 1627 Rocket 4.5 21:27:37 10° N 21:33:53 88° E 21:38:05 23° S
Cosmos 2278 3.9 21:31:37 10° SSW 21:37:15 72° WNW 21:42:57 10° NNE
Cosmos 2292 Rocket 2.8 21:34:27 10° NNW 21:37:25 63° W 21:38:16 40° SSW
ASTRO F (AKARI) 4.4 21:37:45 41° SSW 21:38:38 65° WSW 21:41:47 10° NNW
Cosmos 1862 Rocket 3.9 21:37:31 32° SSE 21:39:12 50° E 21:43:33 10° NNE
Cosmos 2360 Rocket 3.2 21:40:42 25° SE 21:41:56 27° ESE 21:46:35 10° NE
BREEZE M DEB (TANK) 4.2 21:37:52 10° WNW 21:42:25 67° SSW 21:55:47 17° SE
Cosmos 1726 4.2 21:42:12 10° NNE 21:44:29 16° ENE 21:45:09 15° E
Meteor 2-15 4.4 21:41:00 22° S 21:45:01 76° E 21:51:05 10° NNE
Cosmos 2263 Rocket 2.6 21:40:39 10° NW 21:46:05 54° WSW 21:49:11 25° S
NOSS 2-1 (C) 2.6 21:46:44 29° SSW 21:48:15 84° SE 21:51:28 10° NE
SPOT 5 3.7 21:45:43 20° SSW 21:49:10 51° W 21:54:12 10° NNW
Terra 2.0 21:47:56 28° S 21:50:23 68° WSW 21:55:09 10° NNW
Cosmos 482 Debris 4.5 21:48:14 10° WNW 21:51:23 51° SSW 21:52:24 40° SSE
Cosmos 1441 Rocket 3.4 21:51:04 45° SE 21:51:37 49° E 21:55:13 10° NNE
Resurs 01 Rocket 4.3 21:50:21 10° WSW 21:51:49 11° W 21:53:17 10° WNW
Cosmos 1346 Rocket 2.8 21:50:23 30° SSW 21:52:15 80° W 21:56:18 10° N
SAR-Lupe-1 3.9 21:50:26 10° NNE 21:54:01 71° ESE 21:54:46 51° SSE
Cosmos 2279 Rocket 3.9 21:53:29 27° S 21:57:02 73° E 22:03:16 10° NNE
NOSS 2-1 (D) 2.9 21:56:58 25° SW 21:58:43 74° NW 22:01:56 10° NE
Cosmos 990 Rocket 4.2 21:57:54 34° SSE 21:59:51 53° ESE 22:04:57 10° NNE
Cosmos 1680 Rocket 4.3 21:56:04 10° N 22:01:05 41° ENE 22:03:26 26° ESE
USA 215 3.7 21:55:37 10° ENE 22:01:35 36° SE 22:03:42 29° SSE
Iridium 2 3.5 21:59:56 10° N 22:03:42 76° E 22:04:23 56° SSE
Cosmos 1066 Rocket 4.3 22:05:06 33° SSE 22:07:40 66° E 22:13:17 10° NNE
Cosmos 1818 4.4 22:03:52 10° NNW 22:09:05 43° NE 22:12:08 23° ESE
Iridium 4 Rocket 4.0 22:08:10 10° NNE 22:12:30 39° E 22:13:44 34° ESE
Cosmos 1898 Rocket 3.9 22:11:50 38° SE 22:13:12 47° ESE 22:18:19 10° NNE
Cosmos 1980 Rocket 4.2 22:08:28 10° WSW 22:13:13 27° NW 22:18:03 10° N
SL-24 R/B - RUBIN 2 4.2 22:10:12 10° NW 22:14:25 45° WSW 22:15:32 37° SSW
ISS -2.7 22:11:51 10° WNW 22:14:21 33° WSW 22:14:21 33° WSW
Okean 1-7 3.4 22:17:25 43° ESE 22:18:02 46° E 22:22:13 10° NNE
Iridium 51 4.0 22:21:01 60° E 22:21:01 60° E 22:24:30 10° N
Cosmos 2322 Rocket 2.1 22:18:02 28° SSW 22:21:07 84° ESE 22:26:46 10° NNE
Cosmos 2180 Rocket 4.4 22:21:19 32° S 22:24:20 88° E 22:30:31 10° N
Okean 3 4.0 22:25:02 40° ESE 22:25:19 41° E 22:29:19 10° NNE
Cosmos 1844 Rocket 2.7 22:20:14 10° NNW 22:25:51 72° ENE 22:27:57 39° SE
Cosmos 2333 Rocket 2.9 22:25:18 33° ESE 22:26:05 34° ESE 22:31:09 10° NE
Cosmos 1805 3.2 22:24:02 10° NNW 22:27:56 75° W 22:28:28 62° SSW
BREEZE-M DEB (TANK) 2.5 22:29:15 10° WNW 22:31:53 53° SSW 22:31:53 53° SSW
H-2A R/B 4.4 22:28:48 10° NNE 22:32:20 31° E 22:32:20 31° E
ATLAS 2AS CENTAUR R/B 4.0 22:25:23 10° WSW 22:32:48 46° NW 22:39:59 10° NNE
ARIANE 5 R/B 4.0 22:31:11 24° SW 22:32:50 30° W 22:36:49 10° NNW
Meteor 1-23 Rocket 4.5 22:34:01 40° SSE 22:35:48 57° E 22:41:31 10° NNE
ATLAS CENTAUR R/B 2.4 22:31:20 10° NNW 22:36:05 49° NE 22:37:50 33° ESE
USA 267 4.0 22:31:07 10° E 22:37:22 50° NNE 22:43:38 10° NW
Cosmos 1733 3.6 22:37:22 10° NNW 22:41:02 50° W 22:41:23 48° WSW
Cosmos 1766 3.1 22:39:10 10° N 22:43:08 84° E 22:43:23 77° SE
Cosmos 2219 Rocket 2.8 22:44:47 36° ESE 22:45:25 37° ESE 22:50:30 10° NE
Cosmos 1703 Rocket 3.5 22:48:15 61° S 22:49:02 88° WNW 22:53:29 10° N
Cosmos 1844 3.7 22:43:44 10° NNW 22:49:35 90° WSW 22:51:27 46° SSE
Cosmos 372 Rocket 4.1 22:51:17 48° SE 22:52:00 52° ESE 22:57:02 10° NNE
Meteor 1-4 Rocket 3.8 22:50:28 10° NNW 22:53:33 30° W 22:53:35 30° W
ATLAS 3B R/B 3.4 22:50:53 10° NW 22:57:53 47° WSW 23:00:39 34° SSW
Cosmos 1707 3.8 23:00:36 33° E 23:00:36 33° E 23:03:47 10° NNE
SL-16 R/B 3.4 22:55:32 10° WSW 23:00:48 39° NW 23:06:07 10° NNE
Cosmos 1655 Rocket 4.1 22:55:42 10° NNW 23:01:54 69° W 23:04:10 40° SSW
Cosmos 1782 Rocket 3.4 23:00:01 10° N 23:04:23 86° W 23:04:50 72° S
ERS-2 2.7 23:03:54 10° NNE 23:06:52 46° ENE 23:06:52 46° ENE
CZ-4C R/B 3.4 23:01:07 10° NW 23:08:10 61° NE 23:14:17 19° ESE
NOSS 3-1 (C) 4.1 23:01:30 10° NW 23:08:57 79° NE 23:14:02 28° SE
Gblst 52 Del rocket 4.4 23:07:23 10° WSW 23:13:53 79° NNW 23:19:39 10° ENE
Cosmos 2237 Rocket 3.9 23:14:56 17° ESE 23:15:25 17° E 23:18:58 10° ENE
COSMOS 2428 3.0 23:17:54 45° SE 23:18:44 48° ESE 23:24:11 10° NE
Cosmos 1470 2.7 23:15:17 10° N 23:19:01 81° NNE 23:19:01 81° NNE
Cosmos 1726 3.1 23:16:13 10° NNW 23:19:26 37° W 23:19:26 37° W
Cosmos 1300 Rocket 3.4 23:16:10 10° N 23:20:32 75° E 23:20:51 70° ESE
Cosmos 2242 Rocket 4.1 23:21:24 45° WSW 23:22:18 54° WNW 23:26:47 10° N
ALOS 2 2.4 23:22:00 73° SSW 23:22:22 82° WSW 23:26:48 10° NNW
Cosmos 2151 Rocket 4.5 23:19:12 10° N 23:23:18 37° ENE 23:23:57 35° E
Cosmos 1937 Rocket 3.8 23:22:46 37° SW 23:24:40 60° WNW 23:29:55 10° NNE
Cosmos 2360 Rocket 2.9 23:22:24 24° WSW 23:25:36 50° WNW 23:31:07 10° NNE
Cosmos 1242 Rocket 3.3 23:22:55 10° N 23:26:07 44° ENE 23:26:07 44° ENE
Okean 2 Rocket 3.7 23:23:03 10° N 23:27:26 47° ENE 23:28:05 44° ESE
Cosmos 405 Rocket 4.4 23:28:20 22° E 23:28:20 22° E 23:30:52 10° NE
In-Cosmos 22 4.3 23:29:31 50° SSE 23:30:43 64° E 23:36:09 10° NNE
Cosmos 2333 4.3 23:29:01 40° SW 23:31:03 73° WNW 23:36:43 10° NNE
Cosmos 1437 Rocket 4.4 23:30:08 10° NNE 23:33:10 22° ENE 23:33:33 22° E
Cosmos 1867 3.6 23:33:44 56° SSE 23:34:31 62° ESE 23:39:56 10° NE
Cosmos 1908 4.1 23:31:16 10° N 23:34:47 37° ENE 23:34:47 37° ENE
Meteor 1-21 4.2 23:34:35 51° SSE 23:36:04 76° E 23:41:54 10° NNE
Cosmos 1626 3.0 23:37:36 39° ENE 23:37:36 39° ENE 23:40:34 10° NNE
Cosmos 1842 4.1 23:38:57 39° W 23:39:10 39° WNW 23:42:50 10° N
Cosmos 1953 3.7 23:40:45 10° NNE 23:44:15 28° ENE 23:44:46 27° E
USA 215 3.4 23:38:23 10° NE 23:44:56 76° NNW 23:51:00 12° WSW
Cosmos 2278 Rocket 3.0 23:40:28 10° NNW 23:45:58 47° ENE 23:48:51 26° ESE
Cosmos 1674 2.8 23:50:45 68° NE 23:50:45 68° NE 23:54:08 10° NNE
Cosmos 1818 4.3 23:47:39 10° NW 23:52:34 35° WSW 23:52:45 35° WSW
Sich 1 Rocket 3.5 23:49:21 10° NNW 23:53:45 73° W 23:54:00 71° SW
ADEOS Rocket 2.8 23:52:27 50° SSW 23:53:52 70° WSW 23:59:52 10° NNW
